RH
6 5 6 6 5 6 6 6 6 6 7 7 7 7 7 8 7 6 6 5 5 5 6 5 5 5 6 6 6 6 6 6 5 5 4 4 4 5 6 7 8 9 8 9 9 9 10 9 9 10 9 9 9 8 10 10 11 16 26 39 50 58 68 75 81 81 73 67 62 69 95 110 104 102
5 5 5 5 5 5 6 5 6 6 6 6 7 7 7 7 7 7 6 6 6 5 6 6 5 5 6 6 6 6 6 6 5 5 4 4 4 4 5 6 7 10 9 9 10 10 10 10 10 11 10 10 10 9 10 10 10 12 19 37 51 60 70 79 86 92 89 79 70 71 91 108 107 103
5 5 5 5 5 5 5 5 5 6 6 6 6 6 7 7 7 7 7 6 5 6 6 6 5 6 6 6 6 6 6 6 5 5 4 4 4 4 5 6 6 9 10 10 11 11 11 11 11 11 11 11 11 10 10 10 11 10 13 30 50 60 70 82 89 97 101 94 81 78 89 105 109 105
4 4 5 5 5 5 5 6 5 5 6 6 6 6 6 6 7 7 7 6 5 6 7 6 5 6 6 6 7 6 6 6 5 5 5 5 4 4 5 5 6 8 11 12 11 11 11 11 11 11 11 12 11 11 11 10 11 11 10 20 43 60 69 83 93 98 106 105 93 87 93 102 106 104
4 4 5 4 5 5 5 5 5 5 6 6 6 6 6 6 7 7 7 7 6 6 7 7 5 5 6 6 7 7 6 5 5 5 5 5 4 4 5 5 5 7 10 12 12 12 12 12 12 12 12 12 12 11 11 11 10 11 11 12 30 55 69 82 95 99 104 110 104 97 98 102 103 102
4 4 4 4 4 5 5 5 5 5 5 6 6 6 6 6 6 6 7 7 7 6 6 7 6 5 6 7 7 7 6 5 6 5 5 5 4 5 4 5 6 6 8 11 12 12 12 13 13 13 13 13 13 12 11 11 10 10 12 11 17 41 64 80 94 98 101 109 109 104 103 104 105 104
4 4 4 4 4 4 5 5 5 5 5 6 6 6 6 6 6 6 6 7 7 7 7 6 6 6 6 7 7 7 6 6 6 5 5 5 4 5 4 5 6 6 7 10 12 13 13 14 14 13 15 14 14 14 11 11 11 9 11 12 11 26 52 75 91 97 100 105 109 108 106 105 105 103
4 4 4 4 4 4 4 4 5 5 5 6 6 6 6 6 6 6 6 6 6 7 7 6 7 6 6 7 7 7 6 6 6 6 5 5 4 4 4 4 5 6 7 8 11 13 13 14 14 14 15 15 14 15 13 11 11 10 10 12 11 16 34 62 84 94 99 103 108 109 108 105 103 103
4 4 4 4 4 4 4 4 5 5 5 5 5 6 6 6 6 6 6 6 7 7 7 7 7 7 6 7 7 7 6 6 7 6 5 5 4 4 4 4 5 6 7 8 9 11 13 13 13 14 15 16 15 15 15 12 11 11 11 11 13 13 21 45 71 88 96 101 106 108 107 107 104 102
4 3 4 4 4 4 4 4 4 5 5 5 5 5 6 6 6 6 6 6 7 7 7 7 7 7 7 7 7 7 6 6 7 6 5 5 4 4 4 4 5 5 6 8 8 9 12 13 13 14 15 16 16 16 16 14 12 12 12 11 14 13 15 30 54 78 92 98 105 108 108 108 103 101
3 3 3 3 4 4 4 4 4 5 5 5 5 5 5 6 6 6 6 6 6 7 7 7 7 7 7 7 7 7 6 6 7 6 5 5 4 4 4 4 4 5 6 7 8 7 10 12 12 14 15 16 16 16 16 16 13 13 13 12 13 15 14 20 37 62 83 94 104 107 106 105 102 101
3 3 3 3 3 3 4 4 4 5 5 5 5 5 5 5 6 5 6 6 6 7 7 7 7 7 7 7 7 7 7 7 7 7 6 5 5 5 5 4 4 5 5 6 7 7 8 10 12 13 15 16 17 16 17 17 15 14 14 13 13 15 15 16 24 45 69 87 100 106 107 106 105 103
3 3 3 3 3 3 3 4 5 5 5 5 5 5 5 5 5 5 6 6 7 7 7 7 7 7 7 7 7 7 7 7 7 7 6 5 5 5 5 5 4 4 5 5 7 8 7 8 10 12 14 16 17 17 17 18 17 15 14 14 13 14 15 16 18 30 53 76 92 103 108 106 105 104
3 3 3 3 3 3 3 4 4 5 5 5 5 5 5 5 5 5 6 6 7 7 7 7 7 7 8 8 7 7 7 7 7 7 7 5 4 5 4 5 5 4 5 5 6 7 7 7 9 11 13 15 16 17 17 18 18 17 15 14 14 15 15 17 18 21 37 60 80 96 105 104 102 104
3 3 3 3 3 3 3 4 4 5 5 5 5 5 5 5 5 5 6 6 6 7 7 7 7 8 8 8 8 7 7 7 7 7 7 5 4 4 4 5 5 4 5 5 5 6 7 7 8 9 12 13 15 16 17 19 19 18 17 15 15 15 15 16 19 19 25 43 65 85 99 105 106 106
3 3 3 3 3 3 3 3 4 4 5 5 5 5 5 5 5 5 6 6 6 6 7 7 7 8 8 8 9 8 7 7 8 7 7 6 5 5 4 4 5 5 5 5 5 5 6 7 7 8 10 12 14 15 16 19 19 18 18 16 15 15 15 16 18 19 20 29 48 70 87 101 107 105
3 3 3 3 3 3 3 3 4 4 4 5 5 5 5 5 5 5 6 6 6 7 7 7 8 8 8 9 9 9 8 7 8 8 7 7 6 5 5 5 5 5 5 5 5 5 5 7 8 8 9 11 12 14 15 18 19 18 18 17 16 16 16 16 16 18 20 22 33 53 72 90 102 103
3 3 3 3 3 3 3 3 3 3 4 4 4 5 5 5 5 5 6 6 6 7 7 8 8 8 8 9 9 9 8 7 8 8 8 7 6 5 5 5 5 5 5 5 5 5 4 6 7 8 9 10 11 12 14 16 18 19 18 18 18 16 16 17 16 17 19 20 23 36 54 75 90 99
3 3 3 3 3 4 3 3 3 3 4 4 4 4 4 5 6 5 6 6 6 7 7 8 9 9 9 9 9 9 9 9 8 8 8 8 7 5 5 5 5 6 6 5 5 5 4 5 6 7 8 9 10 11 13 15 17 19 20 19 19 19 17 17 17 17 18 20 20 25 36 56 75 89
3 3 3 3 3 4 4 3 3 3 4 4 4 4 4 5 6 6 6 6 6 7 8 8 9 10 9 10 10 10 10 10 9 9 8 8 7 5 5 5 5 6 6 6 6 5 5 5 5 6 7 8 9 10 12 14 16 19 21 20 20 21 20 19 18 18 18 19 20 20 24 37 55 73
3 3 3 3 3 4 4 4 4 3 4 4 3 4 4 4 5 6 6 6 6 7 8 8 9 10 10 11 11 10 11 11 10 9 8 7 7 6 5 5 5 5 6 6 6 5 5 5 4 5 6 7 9 10 10 12 15 18 21 23 22 23 23 22 20 19 19 19 20 20 20 24 37 54
3 3 4 4 3 4 4 4 4 4 4 4 3 4 4 4 5 6 6 6 7 7 8 8 9 11 11 11 11 11 11 11 11 10 9 8 7 6 5 5 5 5 5 5 6 6 5 5 5 5 5 6 7 9 10 11 13 15 19 23 25 25 25 25 24 21 20 20 20 21 21 20 24 36
3 3 4 4 3 4 4 4 4 4 4 4 4 4 4 4 5 6 6 7 7 7 8 9 10 11 12 12 12 12 12 12 12 11 10 9 7 6 6 5 4 5 5 5 5 6 5 5 5 5 5 5 6 8 10 10 11 13 16 19 23 26 27 28 28 27 24 22 22 22 23 22 21 24
4 4 4 4 4 4 4 4 4 4 4 4 4 4 4 4 5 6 6 6 7 8 8 9 10 11 12 12 13 14 13 13 12 12 11 9 8 7 6 5 5 5 5 5 5 5 5 5 5 5 5 5 5 6 8 9 10 11 13 16 19 23 26 27 29 31 30 27 25 24 24 25 24 22
4 4 4 4 4 4 4 4 4 4 4 4 4 4 4 4 5 6 6 6 7 8 8 10 10 11 12 13 14 15 14 13 12 12 12 10 8 7 6 5 5 5 5 5 5 5 5 5 5 5 5 5 5 5 7 9 10 10 11 13 16 20 23 25 26 29 31 31 30 27 26 26 26 25
3 4 4 4 4 4 4 4 4 4 4 4 4 4 4 5 5 6 6 6 7 8 9 10 11 11 12 14 15 16 15 14 13 13 12 11 9 7 6 5 5 5 5 5 5 5 5 5 5 5 5 5 5 5 5 7 9 10 10 11 13 17 21 24 24 25 28 31 32 31 30 28 27 27
4 4 4 4 4 4 4 4 4 4 4 4 4 4 5 5 5 5 6 7 7 8 10 11 11 12 13 14 16 17 16 14 13 13 12 11 9 8 6 5 5 5 5 5 5 5 5 5 5 5 5 5 5 5 5 6 7 10 11 11 11 13 17 21 24 25 25 27 30 32 32 31 30 29
4 4 4 4 4 4 4 4 4 4 4 4 4 5 5 6 5 5 6 7 8 9 10 11 11 12 13 15 16 17 17 15 14 13 13 12 10 8 7 6 5 5 5 5 5 5 5 5 5 5 5 5 5 5 6 5 6 8 10 11 11 11 13 17 21 24 26 26 28 30 32 33 33 32
4 4 4 4 4 4 4 4 4 5 5 5 5 5 6 6 6 5 6 7 8 9 10 12 13 13 14 15 16 18 17 16 14 14 13 12 10 8 7 6 6 5 5 5 5 5 5 5 5 5 5 5 5 5 5 5 5 6 8 10 12 11 11 13 17 21 25 26 27 29 31 33 34 34
3 4 4 4 4 4 4 4 4 5 5 5 5 5 6 6 5 5 6 7 8 10 11 12 14 14 15 16 17 18 17 16 15 15 14 12 10 8 7 6 6 6 5 5 5 5 5 5 5 5 6 6 6 6 5 5 6 5 6 8 10 12 12 11 13 17 21 25 27 28 30 32 33 34
3 3 3 4 4 4 4 4 5 5 5 5 5 6 6 6 6 6 7 8 9 10 12 14 15 15 16 16 18 18 18 17 16 15 14 13 11 9 7 6 6 6 6 5 5 5 5 5 5 5 6 6 7 7 6 5 5 6 6 6 8 10 12 11 11 13 16 21 25 27 29 31 32 34
3 4 4 4 4 4 4 4 5 5 5 5 6 6 6 6 6 7 7 8 10 11 13 15 17 17 16 17 18 19 18 18 17 16 15 14 11 9 8 7 6 6 6 6 6 5 5 5 5 5 6 6 7 7 7 6 5 5 6 6 6 8 10 11 11 11 12 16 20 24 27 30 31 33
3 4 4 4 4 4 4 5 5 5 5 5 5 6 7 7 7 7 8 9 10 12 14 17 18 18 17 18 19 19 19 18 17 17 16 15 12 10 8 7 7 6 6 6 6 5 5 5 5 5 5 6 7 7 8 7 6 5 5 5 6 6 7 9 11 11 11 12 15 20 24 27 29 32
3 4 4 4 4 4 4 5 5 5 5 5 5 6 7 7 7 7 9 9 10 12 16 19 20 19 19 19 19 20 20 19 18 18 17 16 14 11 8 8 7 7 6 6 6 6 6 5 5 5 5 5 6 7 7 8 7 6 5 5 5 6 6 7 8 10 11 11 12 14 19 22 26 29
3 4 4 4 4 4 4 5 5 6 5 5 5 6 7 8 8 8 9 10 11 13 18 21 23 22 20 20 20 20 20 19 18 18 18 17 15 12 9 8 8 8 7 6 6 6 6 6 6 6 5 5 6 6 7 7 7 7 6 5 5 5 6 6 6 8 10 11 11 12 14 17 21 24
4 4 5 4 4 4 5 5 5 5 5 5 6 8 8 8 9 9 10 10 11 15 20 24 25 25 24 22 21 20 20 19 19 18 18 18 17 14 11 9 8 8 8 7 7 7 6 6 6 6 6 6 6 5 6 6 7 7 7 6 5 5 5 5 6 6 7 9 10 11 12 13 16 19
4 4 4 4 4 4 4 5 5 5 5 6 8 8 9 9 10 10 11 11 13 16 21 25 28 28 27 25 23 22 20 19 18 18 19 19 19 16 13 10 9 9 8 8 7 7 7 6 6 7 7 6 6 5 5 5 6 6 7 6 6 5 5 5 5 6 6 7 8 10 11 11 12 14
4 4 4 4 4 4 4 4 5 5 5 7 7 8 9 10 11 12 12 13 14 17 22 26 28 29 29 28 27 25 22 20 19 18 18 19 20 19 16 12 10 9 9 8 8 7 7 7 7 7 7 7 6 6 5 5 5 6 6 7 7 6 6 5 5 5 6 6 6 7 9 10 11 12
4 4 4 4 4 4 4 4 5 5 5 6 7 8 9 10 12 13 14 15 16 19 23 26 28 30 30 30 29 27 25 22 20 19 18 18 19 20 19 15 12 10 9 9 9 8 7 7 7 7 7 7 7 6 6 5 5 5 5 6 7 7 7 6 6 5 5 5 6 6 7 8 9 10
4 4 4 4 4 4 4 5 5 5 6 7 7 8 9 11 13 14 15 16 18 22 25 28 29 30 31 31 31 29 26 24 23 21 20 18 17 18 19 18 15 12 10 9 9 9 8 7 7 7 8 8 7 7 7 6 5 5 5 5 5 6 7 6 6 5 5 5 5 6 6 7 7 8
4 4 4 4 4 4 4 5 5 6 6 7 8 8 10 12 14 15 16 17 20 25 28 29 29 31 32 32 31 29 27 25 24 23 21 20 19 18 19 19 18 15 12 10 10 10 9 8 8 8 8 8 7 7 7 7 6 5 5 5 5 6 6 6 6 6 5 5 5 5 5 6 6 7
4 4 4 4 4 4 5 5 6 6 7 8 8 9 11 13 15 15 16 18 23 28 30 30 31 32 33 33 33 31 29 28 26 25 23 21 20 20 19 19 19 17 14 12 10 10 10 9 9 8 8 8 8 7 7 7 7 6 5 5 5 5 5 6 6 6 6 5 5 5 5 5 5 6
4 4 4 4 4 4 5 5 6 7 8 8 9 10 12 13 14 15 16 21 27 30 31 32 34 34 35 35 34 32 31 30 29 27 25 23 22 21 20 20 19 19 17 14 12 10 10 10 10 9 9 8 8 8 7 7 7 7 7 6 5 5 5 5 5 6 6 6 6 5 5 5 5 5
4 4 4 4 4 5 5 5 6 7 8 9 10 12 13 14 14 16 19 25 30 32 33 35 36 37 37 37 35 33 31 31 29 28 26 25 24 23 22 21 20 20 19 18 15 12 10 10 10 10 9 9 9 8 8 8 7 7 7 7 6 6 5 5 4 5 5 6 6 6 6 5 5 5
4 4 4 4 5 5 6 7 8 9 9 11 12 14 14 15 15 18 23 28 32 34 35 37 38 39 40 38 36 33 32 32 30 29 27 27 27 25 24 22 21 20 20 20 18 15 12 10 10 10 10 9 9 9 8 8 7 7 7 8 7 7 6 5 5 5 4 5 5 6 6 6 6 5
Wind_Speed
75 75 74 73 73 74 73 72 71 72 72 71 71 70 69 69 69 70 70 70 69 66 66 69 70 70 73 77 79 82 84 87 91 96 100 103 106 110 116 124 131 135 136 134 133 131 130 132 134 137 140 142 145 147 148 151 153 156 156 152 149 146 143 140 138 136 133 130 128 125 118 110 107 108
72 72 72 71 71 71 70 70 69 69 69 69 69 68 67 67 67 69 69 69 67 63 64 68 69 69 71 74 77 80 82 85 89 93 98 102 105 107 113 122 129 135 138 137 136 134 133 134 135 137 139 142 144 147 148 150 150 152 154 154 152 149 146 144 141 138 135 132 130 128 123 117 112 113
70 70 70 69 69 68 68 67 67 67 67 67 67 67 66 65 65 67 67 67 64 61 62 66 67 68 70 72 75 78 80 83 87 92 96 101 104 105 110 118 126 133 139 140 138 138 137 136 136 137 139 142 145 147 148 149 149 148 151 155 155 152 149 147 144 140 138 135 133 131 127 123 118 117
67 68 67 67 67 66 65 65 65 65 65 65 65 65 65 64 63 65 65 65 63 59 60 65 66 67 68 71 74 76 79 82 85 89 94 99 102 103 107 114 121 130 139 142 141 141 140 138 137 137 139 142 145 147 149 150 150 147 148 153 157 156 152 150 147 144 141 139 136 133 131 128 124 121
64 65 65 65 64 64 63 63 63 63 63 62 63 63 64 62 62 63 62 62 61 58 59 63 65 66 67 69 72 74 77 80 83 87 92 96 100 101 104 110 117 125 137 144 144 143 142 141 139 138 138 141 145 148 150 151 151 148 147 151 157 158 155 153 151 148 144 142 139 136 135 132 128 126
61 61 62 63 62 61 61 62 62 61 61 60 61 62 62 61 61 61 61 60 60 57 57 62 64 65 66 68 71 73 76 79 82 86 90 94 97 99 102 107 113 121 132 142 145 145 144 144 143 140 138 140 145 149 151 152 151 149 148 150 155 159 158 156 154 152 148 145 143 140 138 136 133 130
58 58 59 61 60 59 59 60 60 60 59 59 60 61 60 60 60 60 59 59 58 57 57 60 63 64 65 67 70 72 74 78 81 84 88 92 95 98 100 105 111 118 128 139 145 146 146 147 146 143 140 141 144 148 151 152 151 150 148 149 153 158 160 159 157 156 152 148 146 143 141 139 136 133
57 56 57 58 58 58 58 59 58 58 58 59 59 60 59 58 59 59 58 58 57 56 57 59 62 63 64 66 69 71 73 76 79 83 86 90 93 96 99 103 109 116 124 134 144 147 148 148 148 145 143 142 143 148 151 152 151 150 148 149 151 155 160 161 160 158 156 152 149 146 144 142 140 137
56 55 56 57 57 57 57 57 56 57 58 58 58 59 59 58 58 58 57 56 55 55 57 59 61 62 63 65 67 70 72 74 77 81 85 88 91 94 98 101 106 113 120 130 140 146 149 150 149 147 146 144 143 147 151 152 152 150 149 150 151 154 158 162 162 161 159 156 153 150 148 146 144 141
56 55 55 55 56 56 56 55 55 55 57 57 57 58 58 58 58 58 56 55 55 55 57 59 60 61 62 64 66 68 71 73 76 79 83 86 89 92 96 99 104 110 117 126 134 142 147 150 150 148 147 146 144 146 150 153 153 152 152 152 153 154 157 161 163 163 161 159 156 154 152 149 148 145
56 55 54 54 55 55 55 53 54 55 56 56 56 57 57 57 57 57 56 55 54 55 57 58 59 60 61 63 65 67 69 72 74 77 81 84 87 90 94 98 102 108 115 122 130 137 144 149 150 149 148 148 146 145 149 153 155 155 155 155 155 156 157 160 163 164 163 162 160 158 156 153 151 150
55 54 53 53 53 54 53 52 53 55 55 55 55 56 56 57 57 56 55 54 54 55 56 58 59 60 61 62 63 65 68 70 73 75 79 83 86 88 92 96 100 106 113 120 126 132 139 145 149 149 148 149 148 146 148 153 157 158 158 158 158 158 158 160 162 165 165 164 163 161 160 157 155 153
54 53 52 51 52 52 52 52 53 55 54 54 54 55 55 56 56 55 54 54 54 55 56 58 59 59 60 61 63 64 67 69 71 74 78 82 85 87 90 94 99 104 110 116 122 128 134 139 145 148 148 149 150 148 148 152 157 159 160 160 159 159 160 160 162 165 166 167 166 164 163 161 159 157
54 52 51 50 50 50 51 51 53 54 54 53 54 54 55 55 55 54 54 53 53 54 56 57 58 59 59 60 62 63 65 68 70 72 75 80 83 86 89 93 97 101 107 113 119 124 129 134 139 145 148 149 150 150 149 152 156 160 162 162 161 161 161 161 162 164 167 168 168 167 166 165 163 162
53 51 50 49 48 49 50 51 52 53 53 54 53 53 54 54 53 53 53 53 53 54 56 57 58 58 59 60 61 62 64 66 68 70 73 77 81 83 87 91 94 97 102 109 115 120 125 129 133 140 145 148 150 151 151 152 156 159 162 163 163 163 162 162 163 165 167 169 170 170 169 168 166 165
52 50 49 48 47 48 49 50 52 53 53 53 53 53 53 53 52 52 52 52 53 54 55 56 57 58 58 58 59 61 62 64 66 67 70 74 77 80 84 88 91 94 98 104 111 116 121 125 128 135 142 147 149 151 152 153 156 159 162 164 164 164 164 164 164 165 167 169 171 172 171 171 169 168
51 49 48 47 46 47 48 50 52 53 52 53 53 53 53 52 51 51 51 51 52 53 54 55 56 57 57 57 58 59 61 62 63 65 67 70 74 78 82 85 88 91 95 100 107 113 117 121 125 130 137 143 148 150 152 154 156 158 160 163 165 165 165 165 165 166 167 168 171 173 174 173 172 171
50 50 48 46 45 46 48 49 51 52 52 53 53 53 52 51 50 50 50 50 51 53 53 54 55 56 56 56 57 58 59 60 61 63 65 68 72 77 80 83 86 89 93 97 103 109 113 118 122 127 133 139 144 148 151 153 155 157 158 161 164 165 166 166 167 167 167 168 171 174 175 176 175 174
48 49 48 46 44 45 47 48 49 50 51 52 53 52 51 50 50 50 49 49 51 52 53 54 55 56 55 56 57 57 58 58 60 62 64 67 71 75 79 82 84 87 91 94 99 105 109 114 119 124 129 134 140 145 148 152 154 156 157 159 162 164 166 167 168 168 169 170 171 173 176 177 178 177
47 48 49 46 44 45 47 48 48 49 50 52 53 52 51 50 50 50 49 49 50 51 52 53 54 55 55 55 56 56 57 58 60 61 63 65 69 72 76 80 83 86 90 94 97 101 106 110 115 120 124 129 135 141 145 149 153 156 157 158 160 163 165 167 169 170 170 171 172 173 175 177 179 179
46 47 48 46 44 45 47 47 48 49 50 52 52 51 50 50 50 50 49 49 49 50 52 53 54 54 54 54 55 56 56 57 59 61 61 63 66 70 73 77 81 84 89 92 96 99 102 106 111 116 119 124 130 137 142 146 150 154 157 159 160 161 164 167 169 170 171 172 172 173 174 176 178 179
45 46 47 46 44 45 47 47 47 48 50 51 51 50 50 50 50 49 48 49 49 50 52 53 53 53 53 53 54 55 56 57 59 59 60 62 64 67 71 74 78 82 86 90 94 97 100 103 107 111 115 119 125 131 138 143 148 153 157 160 161 162 163 165 167 169 171 172 172 173 174 175 177 179
45 45 46 46 44 45 47 47 47 48 50 51 50 49 50 51 49 48 49 49 49 49 51 53 53 53 53 52 53 54 55 56 57 58 59 61 62 65 68 72 76 79 83 87 92 96 98 100 103 107 111 116 121 127 134 140 146 150 155 160 163 164 165 165 166 167 169 171 172 173 174 174 175 177
45 46 46 45 45 45 47 47 46 48 49 50 49 49 50 49 48 49 50 50 49 49 50 52 53 53 52 51 51 53 54 55 55 56 58 60 61 63 66 70 73 76 80 84 88 92 95 98 101 104 108 113 118 123 129 135 141 147 152 157 162 165 167 167 167 167 168 170 172 173 174 174 175 176
45 46 46 45 44 45 46 46 46 47 49 49 48 50 50 48 49 50 51 49 48 48 50 52 53 52 50 50 50 52 53 54 54 54 57 59 60 62 65 68 70 73 77 81 84 88 92 96 99 102 105 110 115 119 124 130 136 142 148 153 159 163 167 168 169 169 169 170 172 173 174 175 175 176
45 45 45 44 43 45 47 46 45 47 49 48 48 49 48 48 50 51 50 48 47 47 50 52 52 51 49 49 49 51 52 53 52 53 55 57 59 62 64 65 68 71 74 78 81 84 89 93 97 100 103 107 111 115 120 125 131 137 143 149 155 161 165 168 170 170 171 171 172 173 174 175 176 176
45 44 44 43 43 45 47 46 45 47 48 48 48 49 48 48 50 50 48 47 46 47 50 52 51 49 48 48 48 50 51 52 51 52 54 56 58 60 62 64 66 69 72 75 78 81 85 89 93 97 100 103 107 111 116 121 127 133 139 145 150 156 162 167 170 171 172 173 173 174 175 175 176 177
44 43 44 43 42 44 46 45 44 46 48 48 48 48 47 48 50 49 47 46 46 47 50 51 50 48 47 47 48 49 50 50 50 50 52 54 56 59 61 63 65 67 69 72 75 78 82 86 90 94 98 101 104 108 113 118 123 129 135 141 146 151 157 163 168 171 172 173 174 175 175 176 177 177
44 43 43 42 42 44 46 45 43 45 47 48 48 47 47 49 50 48 46 46 47 48 49 49 48 47 47 46 47 48 49 49 49 49 51 53 55 57 59 62 65 67 68 70 72 75 78 82 86 90 94 99 102 106 110 114 120 125 131 136 142 147 152 158 164 169 172 173 174 175 176 177 177 178
44 42 42 42 43 44 45 43 43 45 49 49 47 47 47 49 48 46 45 46 47 47 48 48 47 47 46 46 46 47 47 47 47 48 50 52 53 55 58 60 63 65 67 69 70 72 75 78 82 86 90 95 100 104 107 110 114 120 126 132 137 143 147 153 159 165 170 174 175 176 177 178 178 179
42 41 41 41 42 44 44 43 43 46 49 48 46 46 48 48 47 45 45 46 46 47 47 47 46 46 45 45 45 45 46 46 46 47 49 50 52 54 56 58 60 63 65 67 69 70 72 75 78 82 86 91 96 101 106 108 111 115 120 126 132 139 144 149 154 160 166 172 175 176 177 178 179 180
40 39 39 40 42 43 43 42 44 47 48 47 47 47 48 47 47 46 45 46 46 46 46 46 46 45 44 44 44 44 45 45 45 46 48 49 50 52 55 56 58 60 62 65 66 68 69 71 74 77 81 86 91 97 102 106 109 112 116 121 127 134 140 145 149 154 160 167 172 176 177 178 179 180
38 38 39 40 42 43 42 43 45 47 49 49 48 47 47 47 47 46 45 45 46 45 45 45 44 44 43 43 43 43 43 44 44 45 46 47 48 50 52 54 55 57 59 62 64 65 67 68 70 73 77 81 86 91 97 102 107 110 113 116 122 128 134 139 144 149 154 161 167 173 176 178 180 181
37 38 39 41 42 42 42 44 46 48 49 48 46 46 47 47 46 45 45 45 45 45 44 43 43 43 42 42 42 42 42 43 43 44 45 45 47 48 50 51 53 55 57 59 61 62 64 66 68 70 73 76 81 86 91 96 102 107 110 113 117 122 128 133 139 144 149 155 161 167 173 177 179 181
37 37 40 42 42 42 43 45 47 48 48 46 44 45 46 46 46 45 45 45 45 44 42 41 41 42 41 41 41 41 41 42 42 43 43 44 45 47 48 49 51 53 55 56 58 60 62 63 65 67 70 73 76 81 86 90 95 101 106 110 113 117 122 127 132 139 145 150 155 161 167 173 177 180
37 38 41 42 42 42 44 46 48 48 46 44 44 45 46 46 46 45 44 44 44 43 41 40 40 40 40 41 41 40 40 41 41 41 42 42 43 45 47 48 49 51 53 54 56 57 59 61 63 65 67 70 73 76 80 84 89 94 99 104 109 112 116 120 126 132 139 144 150 155 161 167 173 177
37 39 41 42 42 43 46 47 48 47 45 45 45 46 46 46 46 45 44 44 43 42 41 39 39 39 40 40 40 40 40 40 40 40 40 41 42 43 45 47 48 50 51 52 54 56 57 58 60 62 64 67 70 72 75 78 83 88 93 98 102 107 111 115 119 125 131 137 144 149 155 161 166 172
38 40 41 42 42 44 45 46 46 45 45 46 47 47 46 45 45 44 44 44 43 42 40 39 38 39 39 39 39 39 39 39 39 39 39 39 40 41 43 45 47 48 50 51 53 54 55 56 58 60 62 64 67 69 71 75 78 82 86 90 95 100 105 109 114 118 123 129 136 142 148 154 159 165
38 40 42 42 42 43 44 45 45 44 45 46 46 45 45 44 44 44 44 44 43 41 40 39 38 38 38 38 38 39 39 38 38 38 38 38 39 39 41 42 45 47 49 50 51 53 54 55 56 57 59 62 64 66 69 72 75 77 81 85 89 94 99 104 109 113 117 122 127 134 140 146 152 157
38 40 41 40 41 42 43 44 44 44 45 45 45 44 44 44 44 44 45 44 42 40 39 38 38 37 37 38 38 38 38 38 37 37 38 38 38 38 39 40 42 45 48 49 50 51 53 54 54 56 58 60 62 64 66 69 72 74 77 80 84 88 94 99 103 107 111 115 120 125 131 137 144 150
37 39 39 40 41 42 43 44 44 44 44 44 44 43 43 44 44 45 44 43 40 39 38 38 37 37 37 37 37 37 37 37 37 37 37 37 37 37 37 38 40 43 45 48 49 50 52 53 54 55 56 58 60 61 64 66 69 71 74 77 80 83 88 93 97 101 105 109 113 117 122 128 134 140
37 38 39 40 40 41 42 43 44 43 43 43 43 42 43 44 44 44 43 41 39 38 37 36 36 36 36 36 36 36 36 36 36 36 36 36 36 36 37 38 38 40 43 45 48 49 51 52 53 54 56 57 59 60 61 63 66 68 71 74 77 79 83 87 90 94 99 103 107 110 114 119 124 130
37 38 39 39 40 41 43 44 44 43 43 43 42 42 42 43 43 43 41 39 38 37 36 35 35 35 35 35 36 36 35 35 35 36 36 35 36 36 36 37 38 38 40 42 45 48 50 51 53 54 55 56 58 59 60 61 63 66 68 71 73 76 79 82 84 88 92 97 101 104 108 112 116 121
36 37 37 37 39 40 41 41 41 41 41 41 41 41 41 42 41 40 39 38 37 36 34 34 34 35 35 35 35 35 35 35 35 35 35 35 35 36 36 36 37 37 38 39 41 44 47 50 52 53 54 56 57 58 59 60 61 63 65 67 70 74 76 78 80 82 86 89 93 98 102 106 110 113
34 34 33 33 34 35 36 37 38 39 40 39 40 40 40 40 40 39 38 37 36 34 33 33 34 34 35 35 35 35 34 34 35 35 35 34 35 35 36 36 36 36 37 37 39 41 44 47 50 52 53 54 56 58 59 60 61 62 63 65 67 70 73 75 76 78 80 83 86 90 95 100 104 107
Wind_Direction
272 271 270 268 267 266 265 264 263 262 262 261 260 259 257 256 255 253 251 249 247 245 243 241 237 233 231 230 229 229 228 227 227 228 228 226 223 220 219 219 219 222 223 223 224 224 223 222 221 220 219 219 219 219 220 220 221 220 220 218 217 217 218 218 219 220 220 219 219 219 217 215 213 215
272 270 269 268 266 265 264 263 262 261 260 260 259 258 256 255 254 253 251 249 246 243 241 239 235 232 229 229 229 228 228 227 226 227 227 227 224 220 218 218 218 220 222 222 222 223 222 222 221 220 219 218 218 218 219 220 221 220 219 218 217 217 218 218 218 219 220 219 219 219 217 215 213 214
271 269 268 267 266 264 263 262 261 260 259 258 257 257 255 253 252 251 250 249 245 241 239 237 234 231 229 228 228 228 227 226 226 226 226 226 225 221 218 218 218 218 221 221 221 221 222 222 221 220 218 218 217 218 218 220 220 220 218 217 217 217 217 218 218 219 219 219 219 219 218 216 214 213
271 269 267 266 265 263 262 261 260 259 258 257 256 256 254 252 251 250 250 249 245 239 237 236 233 230 229 228 228 227 227 226 225 225 225 226 226 222 218 218 217 217 219 221 220 220 221 222 221 220 218 217 217 217 217 218 219 219 218 217 217 217 217 217 218 218 219 219 219 218 218 217 215 214
270 268 266 265 263 262 261 260 259 257 257 256 255 254 253 252 250 250 249 248 245 239 236 235 233 230 228 228 227 227 226 226 225 224 224 225 225 223 219 217 217 216 217 220 221 220 220 221 221 220 219 217 217 217 217 218 218 218 217 217 216 216 217 217 218 218 218 219 219 218 218 218 216 215
269 267 266 264 263 261 260 259 257 256 255 255 254 253 252 251 250 249 248 247 245 240 235 234 233 230 228 227 227 226 225 225 225 224 224 224 224 223 220 217 216 216 216 218 220 220 220 220 221 220 219 218 217 217 217 218 218 218 217 216 216 216 216 217 218 218 218 218 219 219 218 219 217 216
269 267 265 264 262 260 258 257 256 255 254 253 252 252 251 250 250 249 248 246 245 241 236 234 233 231 228 227 227 226 225 224 225 224 223 223 223 222 220 218 216 216 215 216 219 220 220 220 220 220 219 218 217 217 217 217 218 218 217 216 216 216 215 216 217 218 218 218 219 219 218 219 218 217
269 267 265 263 261 259 257 256 255 254 253 251 251 251 250 249 248 248 247 245 244 241 237 234 233 231 229 227 226 225 224 223 224 224 223 222 222 221 220 218 217 216 215 216 218 219 220 220 220 219 219 218 217 217 217 218 218 218 217 217 216 216 216 216 217 218 218 218 218 219 219 219 219 218
270 267 264 262 261 259 257 255 254 253 252 250 249 249 249 248 247 247 246 245 243 240 237 235 233 232 229 227 226 225 224 222 223 224 223 222 222 221 220 219 217 216 216 216 217 218 219 220 220 219 219 218 217 217 217 218 218 218 217 217 217 216 216 216 216 218 218 218 218 219 219 219 219 219
271 268 264 262 260 258 256 254 253 251 250 249 248 248 248 247 246 246 245 243 241 239 237 235 234 233 230 228 226 225 224 223 222 223 223 222 222 221 220 219 218 217 216 217 218 218 219 220 220 219 218 218 217 216 217 217 218 217 217 217 217 216 216 216 216 217 218 219 219 219 219 219 219 219
271 268 265 261 259 257 255 253 251 250 249 248 247 246 246 246 245 245 244 242 240 238 236 235 234 234 232 229 227 226 225 223 222 222 222 222 222 221 220 219 218 217 217 217 218 218 218 219 220 219 218 218 217 216 216 217 217 217 217 217 217 216 216 216 216 216 217 218 219 219 219 219 219 219
271 268 264 261 258 256 254 252 250 248 247 247 246 245 245 244 244 243 242 241 239 237 236 235 234 234 233 230 228 226 225 224 222 222 221 222 222 221 220 219 218 218 218 218 218 219 219 219 220 220 218 218 218 217 216 216 217 217 217 217 217 217 216 216 216 216 217 218 218 219 220 219 219 219
269 266 264 261 258 255 253 250 249 247 246 245 245 244 244 243 243 242 241 239 238 236 235 234 234 234 233 231 228 226 225 224 223 222 222 221 221 221 220 220 219 218 218 219 219 219 219 219 219 220 219 218 218 217 216 216 217 217 217 218 217 217 217 217 216 216 216 217 218 219 219 220 220 220
268 265 263 260 257 254 251 249 247 247 246 244 243 243 243 242 242 241 239 238 236 235 234 233 233 233 233 232 229 227 225 225 223 223 223 222 221 220 220 220 220 219 218 219 220 220 220 219 219 219 219 219 218 217 216 216 217 217 218 218 218 217 217 217 217 216 216 217 218 218 219 220 220 220
267 264 261 259 255 252 250 247 246 245 245 243 242 242 241 241 241 240 238 237 236 234 233 233 233 233 232 232 231 228 226 225 224 223 223 223 222 221 221 221 220 220 219 220 221 221 221 220 219 218 219 219 219 218 217 216 217 217 218 218 218 218 218 217 218 217 217 217 218 218 219 220 220 221
266 263 260 258 254 251 249 246 245 244 243 243 242 241 240 240 240 239 237 237 236 234 233 232 232 232 232 232 231 230 228 226 225 225 224 224 224 223 222 222 221 221 220 220 221 222 222 222 220 219 219 219 219 218 217 217 217 217 218 218 218 218 218 218 218 218 218 217 218 218 219 220 220 221
264 262 259 256 253 251 248 245 244 243 242 242 241 240 240 239 239 238 237 236 235 234 233 232 232 232 232 232 231 231 230 227 226 226 225 224 224 224 224 223 222 222 221 221 221 222 222 222 221 219 219 219 219 219 218 217 218 218 218 218 218 219 219 219 219 219 219 218 218 219 219 220 220 221
263 261 258 255 252 250 247 245 243 242 241 241 240 240 239 238 238 237 236 235 234 234 233 232 233 233 232 232 232 232 231 230 227 226 226 225 224 223 224 224 223 223 223 222 222 223 223 222 222 220 219 219 219 220 219 218 218 218 219 219 219 219 219 219 219 219 219 219 219 219 219 220 220 221
261 260 258 255 251 249 247 245 243 242 240 240 240 239 238 237 237 237 235 234 233 233 232 232 233 233 232 232 233 233 232 232 230 228 227 226 224 223 223 224 224 223 224 224 223 223 223 223 222 221 220 219 219 219 219 219 218 219 219 219 220 220 220 220 220 220 220 220 220 220 220 220 221 221
259 258 257 254 250 248 247 245 243 241 239 239 239 239 238 237 236 236 234 233 232 232 231 231 232 233 233 233 233 233 233 233 232 230 228 227 226 225 223 223 224 224 224 224 224 224 224 224 223 223 221 220 219 219 219 219 218 218 219 220 220 220 221 221 221 221 221 221 221 221 221 221 221 222
258 256 256 253 250 248 246 244 242 240 238 238 238 238 237 236 235 235 233 232 232 231 231 231 231 232 232 233 233 233 233 233 233 232 231 229 228 227 225 224 224 224 224 225 225 225 225 225 224 224 223 221 219 219 219 219 218 218 218 219 220 220 221 222 222 222 221 222 222 222 222 222 222 222
257 255 254 252 249 247 245 243 242 240 238 238 238 237 236 235 234 234 233 232 231 230 230 230 230 231 231 232 233 234 233 233 233 233 233 231 229 228 226 225 224 224 224 224 225 226 226 225 225 225 224 223 221 219 219 219 218 218 217 218 219 220 221 222 222 223 223 222 223 223 223 223 223 223
257 254 252 251 248 246 245 243 241 240 238 237 237 236 235 235 233 233 232 231 230 229 229 229 230 230 230 231 231 233 234 233 233 233 234 233 232 229 228 227 225 224 224 224 225 226 226 226 225 225 225 224 222 221 219 219 219 218 218 218 218 219 220 221 222 223 223 224 224 224 224 224 224 224
255 253 251 250 247 245 244 242 240 239 238 237 236 235 234 234 232 231 231 230 229 229 229 229 229 230 230 230 231 232 234 234 233 233 234 234 233 231 229 228 227 226 225 225 225 225 226 226 226 225 225 224 224 222 221 220 219 219 219 218 218 219 219 220 221 221 223 224 224 224 225 225 225 225
253 252 250 248 246 244 243 241 239 238 238 237 235 234 234 232 231 231 230 229 228 228 228 229 229 229 229 229 231 232 234 235 234 233 234 234 234 233 231 229 228 227 226 226 225 225 226 226 226 225 225 225 224 223 222 221 221 220 220 219 219 219 220 220 221 221 221 223 224 225 225 225 226 226
252 251 250 247 245 244 242 240 238 237 237 236 234 234 233 231 231 230 229 228 227 227 228 229 230 229 228 229 230 233 234 235 234 234 234 234 234 234 233 231 229 229 228 227 226 226 226 226 226 226 225 225 224 224 223 222 221 221 221 220 220 219 220 220 221 222 221 222 223 224 225 225 226 227
251 249 249 246 243 242 241 239 237 236 236 235 234 233 232 231 231 230 228 226 226 226 227 229 230 229 229 229 230 232 234 235 234 234 235 235 234 234 233 232 231 230 229 228 227 227 226 227 227 227 226 225 225 224 223 222 222 221 221 221 221 220 220 220 221 222 222 222 222 223 224 225 226 227
250 247 247 245 241 240 240 238 236 236 236 235 234 233 231 230 230 229 226 225 224 225 227 229 230 230 229 229 230 232 234 235 234 234 235 235 234 234 233 233 233 232 230 229 228 227 227 227 227 227 227 226 226 225 224 223 222 221 221 221 221 221 220 220 221 222 223 223 223 223 224 224 225 226
248 246 245 243 240 238 239 237 235 235 236 235 233 231 230 229 230 228 225 224 223 224 226 228 230 230 230 230 231 232 234 235 235 235 235 235 235 234 233 233 233 233 232 231 229 228 227 227 227 227 227 227 226 226 225 223 222 222 221 221 222 222 221 221 221 221 222 223 224 224 224 224 225 225
247 245 243 241 239 238 237 236 234 233 234 233 232 230 230 229 229 227 224 223 223 223 225 227 229 230 230 230 231 233 234 235 235 235 235 235 235 234 233 232 232 233 233 233 231 230 228 228 227 227 227 227 227 227 226 225 223 222 222 222 222 222 222 222 221 221 222 223 224 224 225 225 225 225
247 245 243 241 239 238 237 234 232 232 233 233 231 229 229 229 228 226 223 222 222 222 224 226 228 229 229 230 231 233 234 235 235 235 236 235 235 235 234 233 232 233 233 233 233 232 230 229 228 227 227 227 227 227 227 226 225 224 223 222 222 222 222 223 222 221 221 222 223 224 225 225 225 226
247 244 243 240 239 238 236 233 231 231 232 231 229 228 228 228 227 224 222 221 221 221 223 225 228 229 229 230 231 233 234 235 235 236 237 236 235 234 234 234 233 233 233 233 233 233 232 230 229 227 227 227 226 226 227 227 226 225 224 223 222 223 223 223 223 222 222 222 223 224 224 225 226 226
245 242 240 238 237 236 234 232 230 230 230 229 227 226 226 226 225 223 221 220 220 220 222 225 228 229 230 230 231 233 234 235 235 236 237 237 236 235 234 234 234 233 233 233 233 234 233 232 231 229 227 227 226 226 226 226 227 226 225 224 223 223 223 224 224 224 223 223 223 223 224 225 226 226
242 239 237 235 234 233 231 230 229 229 229 228 227 225 225 225 224 222 220 219 219 219 221 224 228 230 231 231 232 233 234 234 235 236 236 237 237 236 235 234 235 235 234 233 233 234 234 234 233 231 229 227 226 226 226 226 226 227 226 225 224 224 224 224 224 224 224 224 223 223 224 225 225 226
239 236 234 233 231 230 228 227 227 227 227 227 225 224 224 224 223 221 219 218 217 218 220 224 227 230 232 233 233 233 233 234 234 235 235 236 237 237 237 235 235 235 235 234 234 234 234 234 234 233 232 230 228 226 226 226 226 227 227 226 226 225 225 224 224 224 224 224 224 224 224 225 225 226
235 232 231 231 229 227 226 225 224 224 224 223 222 222 222 222 221 220 218 217 216 217 218 222 226 230 233 234 235 234 234 233 233 234 235 235 236 236 237 236 236 236 236 235 234 234 235 235 235 235 234 233 231 228 227 226 227 227 227 227 227 226 225 225 225 225 225 225 225 225 225 225 226 226
230 229 229 229 227 225 225 224 223 222 220 219 219 219 219 219 219 219 217 216 215 215 217 220 224 229 232 235 236 237 236 234 233 233 234 235 235 235 236 236 236 236 236 236 235 235 235 235 235 235 235 235 233 231 229 228 227 227 227 228 228 228 227 226 226 225 226 226 226 226 226 226 226 226
228 228 228 227 226 224 224 223 222 220 218 216 217 217 216 217 217 217 216 215 215 215 216 219 222 226 230 233 236 238 238 237 236 235 234 234 234 235 235 236 236 236 237 237 236 236 235 234 235 236 236 235 235 234 232 230 229 228 228 228 228 228 228 228 227 227 226 226 226 227 227 227 227 227
229 228 228 226 225 224 223 222 221 219 216 216 216 215 214 214 215 215 215 215 215 215 217 219 222 225 228 232 235 237 239 239 239 238 237 235 234 234 234 235 236 236 237 237 237 237 236 235 234 236 236 236 235 234 233 232 231 230 229 228 228 228 228 228 228 228 227 227 227 227 227 228 228 228
230 230 229 227 223 221 221 220 218 217 215 215 215 213 212 213 213 214 214 214 214 215 217 220 222 225 228 231 234 236 238 239 239 240 239 238 237 235 234 234 234 236 237 237 237 238 238 236 235 235 236 237 236 235 234 234 233 232 230 230 229 229 229 229 229 229 228 228 227 227 227 228 228 229
230 230 229 226 222 219 217 217 216 215 214 214 213 212 211 211 212 213 213 213 213 215 218 220 222 225 228 231 234 236 238 239 240 240 240 241 240 239 237 235 234 234 235 236 237 238 238 238 236 235 235 237 237 236 235 235 234 233 233 232 231 230 230 230 230 230 230 229 229 229 228 228 229 229
228 226 226 224 221 218 215 213 213 213 213 213 212 211 210 211 212 212 212 212 213 216 218 221 223 225 228 231 234 237 239 240 241 242 242 242 242 242 241 240 237 235 234 235 236 237 238 239 238 237 236 236 237 237 236 236 235 235 234 234 233 232 232 231 231 231 231 231 231 230 230 230 230 230
226 224 222 221 218 215 213 212 212 211 212 212 211 210 210 211 212 212 211 211 214 216 219 221 224 226 229 232 235 237 239 240 242 243 244 244 244 244 244 243 241 239 237 235 235 235 236 237 239 239 238 238 238 238 237 237 236 235 235 235 235 235 234 233 232 231 231 231 231 231 232 231 231 231
224 223 221 218 215 214 213 213 211 210 211 211 210 210 211 211 211 210 210 211 214 217 219 221 225 227 230 233 235 237 239 240 242 244 245 246 246 246 246 246 245 243 241 239 237 236 235 235 236 238 238 238 239 239 239 238 237 237 236 236 236 236 236 235 234 233 232 232 231 232 232 232 232 232
222 221 218 215 214 213 211 210 210 209 209 209 209 210 210 210 210 209 210 212 214 217 219 222 225 228 231 233 236 238 240 241 243 245 246 247 248 248 248 248 248 247 245 243 241 239 237 236 235 236 237 237 238 239 239 239 239 238 237 236 237 237 238 238 237 236 235 234 233 233 233 233 233 233